Date String (YYYY-MM-DD hh:mm:ss) UTC,Instrument flags,Ambient pressure (hPa),Sample flow (lpm),Bypass flow (lpm),Sample temperature (°C),Ambient temperature (°C),ASC tube jacket temperature (°C),LED temperature (°C),Box temperature (°C),Sample RH (%),Span deviation,Mass concentration (μg/m³),Mass concentration (μg/m³),Mass concentration (μg/m³)
DateTimeUTC,F1_M11,P_M11,Q1_M11,Q2_M11,T1_M11,T2_M11,T3_M11,T4_M11,T5_M11,U1_M11,ZSPAN_M11,X0_M11,X2_M11,X1_M11
2022-11-17 00:00:00,,0832.3,5.00,0.00,21.5,20.2,00.0,30.5,23.4,09.4,0000.0,0009.83,0003.62,0003.31
2022-11-17 00:01:00,,0832.4,5.00,0.00,21.5,20.2,00.0,30.5,23.4,09.4,0000.0,0009.67,0003.60,0003.31
2022-11-17 00:02:00,,0832.3,5.00,0.00,21.6,20.2,00.0,30.5,23.4,09.3,0000.0,0009.14,0003.58,0003.31
2022-11-17 00:03:00,,0832.3,4.99,0.00,21.6,20.2,00.0,30.5,23.4,09.2,0000.0,0008.97,0003.59,0003.32
2022-11-17 00:04:00,,0832.3,4.99,0.00,21.5,20.3,00.0,30.5,23.4,09.3,0000.0,0008.66,0003.58,0003.32
2022-11-17 00:05:00,,0832.2,5.01,0.00,21.6,20.3,00.0,30.5,23.4,09.4,0000.0,0008.11,0003.61,0003.33
2022-11-17 00:06:00,,0832.2,5.00,0.00,21.6,20.3,00.0,30.5,23.4,09.5,0000.0,0008.44,0003.64,0003.34
2022-11-17 00:07:00,,0832.2,5.00,0.00,21.6,20.2,00.0,30.5,23.4,09.4,0000.0,0009.21,0003.64,0003.37
2022-11-17 00:08:00,,0832.3,5.00,0.00,21.6,20.2,00.0,30.5,23.4,09.4,0000.0,0009.34,0003.65,0003.38
2022-11-17 00:09:00,,0832.3,5.01,0.00,21.6,20.2,00.0,30.5,23.4,09.4,0000.0,0009.14,0003.66,0003.40
2022-11-17 00:10:00,,0832.2,5.00,0.00,21.5,20.1,00.0,30.5,23.4,09.4,0000.0,0008.87,0003.81,0003.52
2022-11-17 00:11:00,,0832.2,5.01,0.00,21.5,20.1,00.0,30.5,23.3,09.5,0000.0,0008.55,0003.88,0003.57
2022-11-17 00:12:00,,0832.2,5.00,0.00,21.5,19.9,00.0,30.5,23.2,09.4,0000.0,0008.63,0003.92,0003.59
2022-11-17 00:13:00,,0832.2,5.00,0.00,21.5,19.8,00.0,30.5,23.2,09.4,0000.0,0009.09,0003.96,0003.61
2022-11-17 00:14:00,,0832.2,5.00,0.00,21.4,19.8,00.0,30.4,23.2,09.4,0000.0,0009.13,0003.97,0003.62
2022-11-17 00:15:00,,0832.2,5.01,0.00,21.4,19.8,00.0,30.4,23.2,09.4,0000.0,0009.30,0004.04,0003.64
2022-11-17 00:16:00,,0832.2,5.01,0.00,21.4,19.8,00.0,30.4,23.2,09.3,0000.0,0009.30,0004.04,0003.64
2022-11-17 00:17:00,,0832.2,5.00,0.00,21.4,19.9,00.0,30.4,23.2,09.3,0000.0,0009.24,0004.05,0003.64
2022-11-17 00:18:00,,0832.2,4.99,0.00,21.4,19.9,00.0,30.4,23.3,09.2,0000.0,0008.55,0004.07,0003.64
2022-11-17 00:19:00,,0832.2,5.00,0.00,21.4,20.0,00.0,30.4,23.3,09.2,0000.0,0007.82,0004.09,0003.64
2022-11-17 00:20:00,,0832.2,5.01,0.00,21.4,20.0,00.0,30.4,23.3,09.1,0000.0,0008.62,0004.14,0003.64
2022-11-17 00:21:00,,0832.3,5.01,0.00,21.4,20.1,00.0,30.4,23.3,09.1,0000.0,0008.32,0003.99,0003.52
2022-11-17 00:22:00,,0832.3,4.99,0.00,21.4,20.1,00.0,30.4,23.3,09.1,0000.0,0008.43,0003.91,0003.45
2022-11-17 00:23:00,,0832.3,5.00,0.00,21.4,20.1,00.0,30.4,23.3,09.3,0000.0,0008.43,0003.87,0003.43
2022-11-17 00:24:00,,0832.2,5.00,0.00,21.5,20.1,00.0,30.4,23.3,09.3,0000.0,0008.01,0003.85,0003.43
2022-11-17 00:25:00,,0832.2,5.01,0.00,21.5,20.1,00.0,30.4,23.3,09.2,0000.0,0008.05,0003.87,0003.44
2022-11-17 00:26:00,,0832.3,5.01,0.00,21.5,20.2,00.0,30.4,23.3,09.2,0000.0,0008.20,0003.93,0003.48
2022-11-17 00:27:00,,0832.3,4.99,0.00,21.5,20.2,00.0,30.4,23.4,09.1,0000.0,0008.73,0004.11,0003.56
2022-11-17 00:28:00,,0832.3,5.00,0.00,21.5,20.3,00.0,30.4,23.3,09.1,0000.0,0008.74,0004.15,0003.60
2022-11-17 00:29:00,,0832.3,5.00,0.00,21.5,20.3,00.0,30.4,23.4,09.1,0000.0,0008.79,0004.15,0003.61
2022-11-17 00:30:00,,0832.3,5.00,0.00,21.5,20.3,00.0,30.4,23.4,09.1,0000.0,0008.67,0004.12,0003.60
2022-11-17 00:31:00,,0832.3,5.00,0.00,21.5,20.4,00.0,30.4,23.4,09.1,0000.0,0007.96,0004.08,0003.58
2022-11-17 00:32:00,,0832.3,5.00,0.00,21.5,20.3,00.0,30.4,23.4,09.1,0000.0,0008.01,0004.09,0003.58
2022-11-17 00:33:00,,0832.3,5.00,0.00,21.5,20.3,00.0,30.4,23.5,09.1,0000.0,0007.74,0004.07,0003.57
2022-11-17 00:34:00,,0832.3,5.00,0.00,21.6,20.3,00.0,30.4,23.5,08.9,0000.0,0007.99,0004.05,0003.54
2022-11-17 00:35:00,,0832.3,5.01,0.00,21.6,20.3,00.0,30.4,23.4,08.9,0000.0,0008.23,0004.02,0003.51
2022-11-17 00:36:00,,0832.3,5.00,0.00,21.6,20.3,00.0,30.4,23.4,08.9,0000.0,0008.19,0003.97,0003.47
2022-11-17 00:37:00,,0832.3,5.00,0.00,21.6,20.3,00.0,30.4,23.5,09.1,0000.0,0008.02,0003.88,0003.40
2022-11-17 00:38:00,,0832.3,5.01,0.00,21.6,20.3,00.0,30.4,23.5,09.0,0000.0,0007.56,0003.71,0003.30
2022-11-17 00:39:00,,0832.2,5.00,0.00,21.6,20.4,00.0,30.4,23.5,08.9,0000.0,0007.48,0003.59,0003.23
2022-11-17 00:40:00,,0832.3,4.99,0.00,21.6,20.6,00.0,30.4,23.5,08.9,0000.0,0007.50,0003.54,0003.18
2022-11-17 00:41:00,,0832.3,5.02,0.00,21.7,21.4,00.0,30.4,23.7,09.0,0000.0,0007.72,0003.54,0003.16
2022-11-17 00:42:00,,0832.3,5.00,0.00,21.8,22.0,00.0,30.4,23.9,09.1,0000.0,0007.99,0003.55,0003.14
2022-11-17 00:43:00,,0832.3,4.99,0.00,21.9,21.8,00.0,30.5,23.9,09.0,0000.0,0007.96,0003.55,0003.14
2022-11-17 00:44:00,,0832.3,5.00,0.00,21.9,21.5,00.0,30.5,23.9,09.1,0000.0,0007.99,0003.57,0003.14
2022-11-17 00:45:00,,0832.4,5.00,0.00,21.9,21.3,00.0,30.6,23.9,09.1,0000.0,0007.85,0003.61,0003.17
2022-11-17 00:46:00,,0832.3,5.00,0.00,21.9,21.2,00.0,30.6,23.8,09.1,0000.0,0007.54,0003.69,0003.21
2022-11-17 00:47:00,,0832.3,5.00,0.00,21.9,21.0,00.0,30.7,23.9,09.0,0000.0,0007.66,0003.74,0003.23
2022-11-17 00:48:00,,0832.3,5.00,0.00,21.9,21.0,00.0,30.7,23.9,09.0,0000.0,0007.71,0003.75,0003.25
2022-11-17 00:49:00,,0832.3,5.00,0.00,21.9,20.9,00.0,30.7,23.9,09.0,0000.0,0007.76,0003.77,0003.26
2022-11-17 00:50:00,,0832.2,5.01,0.00,21.9,20.8,00.0,30.7,23.9,08.9,0000.0,0007.69,0003.79,0003.28
2022-11-17 00:51:00,,0832.3,5.01,0.00,21.9,20.8,00.0,30.7,23.8,08.9,0000.0,0007.77,0003.80,0003.29
2022-11-17 00:52:00,,0832.3,5.01,0.00,21.9,20.8,00.0,30.7,23.8,08.9,0000.0,0007.53,0003.78,0003.30
2022-11-17 00:53:00,,0832.3,4.99,0.00,21.9,20.8,00.0,30.8,23.8,08.7,0000.0,0006.97,0003.73,0003.29
2022-11-17 00:54:00,,0832.3,4.99,0.00,21.9,20.8,00.0,30.8,23.8,08.8,0000.0,0006.79,0003.69,0003.27
2022-11-17 00:55:00,,0832.3,5.00,0.00,21.9,20.8,00.0,30.8,23.8,08.8,0000.0,0006.67,0003.65,0003.26
2022-11-17 00:56:00,,0832.4,5.01,0.00,21.9,20.7,00.0,30.8,23.8,08.9,0000.0,0006.55,0003.61,0003.24
2022-11-17 00:57:00,,0832.4,5.00,0.00,21.9,20.7,00.0,30.8,23.8,09.0,0000.0,0006.56,0003.58,0003.23
2022-11-17 00:58:00,,0832.4,5.00,0.00,21.9,20.7,00.0,30.8,23.8,09.3,0000.0,0006.73,0003.56,0003.24
2022-11-17 00:59:00,,0832.3,5.00,0.00,21.9,20.6,00.0,30.8,23.8,09.3,0000.0,0006.70,0003.56,0003.26
